When you browse on this site, cookies collect data to enhance your experience and personalize the content and advertising you see.
Visit our Privacy Policy to learn more. By continuing to use the site, you agree to this use of cookies and data.
  • In Austria
  • List of Countries
  • For 7 days
  • Water Temperature
  • Weather Map
  • News
  • Weather Widgets
  • user-avatar
    Login

    Hourly Weather Zastav'je

    Today, 17 August, Saturday

    Time Temperature Precipitation Wind Pressure Humidity
    00:00 +13°C° 0 mm 1 mps 742 mmHg 80%
    01:00 +13°C° 0 mm 1 mps 742 mmHg 82%
    02:00 +13°C° 0 mm 1 mps 742 mmHg 85%
    03:00 +12°C° 0 mm 1 mps 742 mmHg 86%
    04:00 +12°C° 0 mm 1 mps 742 mmHg 87%
    05:00 +12°C° 0 mm 1 mps 742 mmHg 88%
    06:00 +14°C° 0 mm 1 mps 742 mmHg 84%
    07:00 +15°C° 0 mm 1 mps 742 mmHg 79%
    08:00 +18°C° 0 mm 1 mps 742 mmHg 74%
    09:00 +18°C° 0 mm 2 mps 742 mmHg 70%
    10:00 +20°C° 0 mm 2 mps 743 mmHg 66%
    11:00 +21°C° 0 mm 2 mps 743 mmHg 62%
    12:00 +23°C° 0.1 mm 2 mps 742 mmHg 59%
    13:00 +23°C° 0.1 mm 2 mps 742 mmHg 57%
    14:00 +24°C° 0.1 mm 3 mps 742 mmHg 54%
    15:00 +24°C° 0 mm 2 mps 742 mmHg 56%
    16:00 +24°C° 0 mm 2 mps 742 mmHg 57%
    17:00 +24°C° 0 mm 2 mps 741 mmHg 58%
    18:00 +21°C° 0 mm 2 mps 741 mmHg 63%
    19:00 +20°C° 0 mm 1 mps 741 mmHg 68%
    20:00 +18°C° 0 mm 1 mps 741 mmHg 73%
    21:00 +18°C° 0 mm 1 mps 741 mmHg 74%
    22:00 +15°C° 0 mm 0 mps 741 mmHg 75%
    23:00 +14°C° 0 mm 0 mps 741 mmHg 77%

    Tomorrow, 18 August, Sunday

    Time Temperature Precipitation Wind Pressure Humidity
    00:00 +14°C° 0 mm 0 mps 741 mmHg 77%
    01:00 +15°C° 0 mm 1 mps 741 mmHg 78%
    02:00 +15°C° 0 mm 1 mps 741 mmHg 78%
    03:00 +14°C° 0 mm 1 mps 741 mmHg 80%
    04:00 +14°C° 0 mm 1 mps 741 mmHg 82%
    05:00 +14°C° 0 mm 1 mps 741 mmHg 84%
    06:00 +15°C° 0 mm 1 mps 741 mmHg 80%
    07:00 +18°C° 0 mm 1 mps 742 mmHg 76%
    08:00 +19°C° 0 mm 2 mps 742 mmHg 72%
    09:00 +20°C° 0 mm 2 mps 742 mmHg 68%
    10:00 +23°C° 0 mm 2 mps 742 mmHg 63%
    11:00 +24°C° 0 mm 3 mps 742 mmHg 58%
    12:00 +25°C° 0 mm 3 mps 742 mmHg 56%
    13:00 +26°C° 0 mm 3 mps 742 mmHg 54%
    14:00 +27°C° 0 mm 3 mps 741 mmHg 53%
    15:00 +27°C° 0 mm 2 mps 741 mmHg 53%
    16:00 +27°C° 0 mm 2 mps 741 mmHg 54%
    17:00 +27°C° 0 mm 2 mps 742 mmHg 55%
    18:00 +25°C° 0 mm 2 mps 742 mmHg 60%
    19:00 +23°C° 0 mm 2 mps 742 mmHg 66%
    20:00 +20°C° 0 mm 2 mps 742 mmHg 71%
    21:00 +20°C° 0 mm 2 mps 742 mmHg 73%
    22:00 +19°C° 0 mm 2 mps 742 mmHg 75%
    23:00 +18°C° 0 mm 2 mps 742 mmHg 78%

    Day after tomorrow, 19 August, Monday

    Time Temperature Precipitation Wind Pressure Humidity
    00:00 +18°C° 0 mm 2 mps 742 mmHg 77%
    01:00 +18°C° 0 mm 2 mps 742 mmHg 77%
    02:00 +17°C° 0 mm 2 mps 742 mmHg 76%
    03:00 +17°C° 0 mm 2 mps 742 mmHg 76%
    04:00 +17°C° 0 mm 2 mps 742 mmHg 77%
    05:00 +17°C° 0 mm 2 mps 742 mmHg 77%
    06:00 +18°C° 0 mm 2 mps 743 mmHg 75%
    07:00 +20°C° 0 mm 2 mps 743 mmHg 72%
    08:00 +21°C° 0 mm 3 mps 743 mmHg 70%
    09:00 +24°C° 0 mm 2 mps 743 mmHg 65%
    10:00 +26°C° 0 mm 2 mps 743 mmHg 60%
    11:00 +28°C° 0 mm 2 mps 744 mmHg 55%
    12:00 +29°C° 0 mm 2 mps 744 mmHg 53%
    13:00 +29°C° 0 mm 2 mps 744 mmHg 52%
    14:00 +30°C° 0 mm 2 mps 744 mmHg 50%
    15:00 +30°C° 0 mm 2 mps 744 mmHg 52%
    16:00 +30°C° 0 mm 2 mps 744 mmHg 54%
    17:00 +30°C° 0 mm 2 mps 744 mmHg 57%
    18:00 +28°C° 0 mm 2 mps 744 mmHg 62%
    19:00 +26°C° 0 mm 3 mps 744 mmHg 67%
    20:00 +24°C° 0 mm 3 mps 743 mmHg 72%
    21:00 +22°C° 0 mm 3 mps 744 mmHg 72%
    22:00 +22°C° 0 mm 3 mps 744 mmHg 71%
    23:00 +21°C° 0 mm 3 mps 744 mmHg 70%

    20 August, Tuesday

    Time Temperature Precipitation Wind Pressure Humidity
    00:00 +20°C° 0 mm 3 mps 744 mmHg 69%
    01:00 +20°C° 0 mm 3 mps 744 mmHg 69%
    02:00 +20°C° 0 mm 3 mps 744 mmHg 69%
    03:00 +19°C° 0 mm 2 mps 744 mmHg 70%
    04:00 +19°C° 0 mm 2 mps 744 mmHg 72%
    05:00 +19°C° 0 mm 1 mps 744 mmHg 73%
    06:00 +20°C° 0 mm 1 mps 745 mmHg 71%
    07:00 +21°C° 0 mm 2 mps 745 mmHg 70%
    08:00 +23°C° 0 mm 2 mps 745 mmHg 68%
    09:00 +24°C° 0 mm 2 mps 745 mmHg 65%
    10:00 +26°C° 0 mm 2 mps 746 mmHg 62%
    11:00 +27°C° 0 mm 2 mps 746 mmHg 59%
    12:00 +28°C° 0 mm 1 mps 746 mmHg 57%
    13:00 +29°C° 0 mm 1 mps 745 mmHg 54%
    14:00 +30°C° 0 mm 1 mps 745 mmHg 51%
    15:00 +30°C° 0 mm 1 mps 745 mmHg 52%
    16:00 +30°C° 0 mm 1 mps 745 mmHg 52%
    17:00 +30°C° 0 mm 1 mps 745 mmHg 53%
    18:00 +28°C° 0 mm 1 mps 745 mmHg 57%
    19:00 +26°C° 0 mm 2 mps 745 mmHg 62%
    20:00 +24°C° 0 mm 2 mps 744 mmHg 67%
    21:00 +24°C° 0 mm 2 mps 745 mmHg 66%
    22:00 +22°C° 0 mm 3 mps 745 mmHg 65%
    23:00 +21°C° 0 mm 3 mps 745 mmHg 64%

    21 August, Wednesday

    Time Temperature Precipitation Wind Pressure Humidity
    00:00 +21°C° 0 mm 3 mps 744 mmHg 64%
    01:00 +21°C° 0 mm 3 mps 744 mmHg 64%
    02:00 +20°C° 0 mm 4 mps 744 mmHg 63%
    03:00 +20°C° 0 mm 4 mps 744 mmHg 63%
    04:00 +20°C° 0 mm 4 mps 743 mmHg 62%
    05:00 +20°C° 0 mm 4 mps 743 mmHg 61%
    06:00 +21°C° 0 mm 4 mps 743 mmHg 61%
    07:00 +22°C° 0 mm 5 mps 743 mmHg 62%
    08:00 +23°C° 0 mm 5 mps 743 mmHg 62%
    09:00 +25°C° 0 mm 5 mps 744 mmHg 60%
    10:00 +27°C° 0 mm 4 mps 744 mmHg 58%
    11:00 +29°C° 0 mm 4 mps 744 mmHg 56%
    12:00 +28°C° 0 mm 5 mps 744 mmHg 59%
    13:00 +27°C° 0 mm 6 mps 744 mmHg 63%
    14:00 +27°C° 0 mm 7 mps 744 mmHg 66%
    15:00 +24°C° 0 mm 7 mps 745 mmHg 68%
    16:00 +23°C° 0 mm 7 mps 745 mmHg 70%
    17:00 +21°C° 0 mm 7 mps 746 mmHg 72%
    18:00 +20°C° 0 mm 6 mps 746 mmHg 74%
    19:00 +19°C° 0 mm 5 mps 747 mmHg 77%
    20:00 +17°C° 0 mm 4 mps 747 mmHg 79%
    21:00 +15°C° 0 mm 4 mps 748 mmHg 82%
    22:00 +14°C° 0 mm 3 mps 748 mmHg 85%
    23:00 +14°C° 0 mm 3 mps 749 mmHg 88%

    22 August, Thursday

    Time Temperature Precipitation Wind Pressure Humidity
    00:00 +13°C° 0 mm 3 mps 749 mmHg 90%
    01:00 +12°C° 0 mm 3 mps 749 mmHg 92%
    02:00 +11°C° 0 mm 3 mps 749 mmHg 94%
    03:00 +11°C° 0 mm 3 mps 749 mmHg 94%
    04:00 +11°C° 0 mm 3 mps 749 mmHg 94%
    05:00 +10°C° 0 mm 2 mps 749 mmHg 93%
    06:00 +11°C° 0 mm 3 mps 749 mmHg 88%
    07:00 +13°C° 0 mm 3 mps 750 mmHg 83%
    08:00 +14°C° 0 mm 3 mps 750 mmHg 78%
    09:00 +17°C° 0 mm 3 mps 750 mmHg 72%
    10:00 +18°C° 0 mm 3 mps 750 mmHg 67%
    11:00 +20°C° 0 mm 4 mps 750 mmHg 61%
    12:00 +21°C° 0 mm 4 mps 750 mmHg 58%
    13:00 +22°C° 0 mm 4 mps 750 mmHg 55%
    14:00 +23°C° 0 mm 4 mps 749 mmHg 51%
    15:00 +23°C° 0 mm 4 mps 749 mmHg 53%
    16:00 +23°C° 0 mm 4 mps 749 mmHg 54%
    17:00 +23°C° 0 mm 4 mps 749 mmHg 55%
    18:00 +21°C° 0 mm 3 mps 749 mmHg 62%
    19:00 +19°C° 0 mm 3 mps 749 mmHg 69%
    20:00 +17°C° 0 mm 2 mps 749 mmHg 76%
    21:00 +16°C° 0 mm 2 mps 749 mmHg 78%
    22:00 +16°C° 0 mm 2 mps 750 mmHg 79%
    23:00 +15°C° 0 mm 2 mps 750 mmHg 81%
    Show more